Year,Month,Day,Hour,Minute,Value (Times are PST for temperature in C)
2012,08,13,00,00,16.20
2012,08,13,00,01,16.10
2012,08,13,00,02,16.10
2012,08,13,00,03,16.10
2012,08,13,00,04,16.10
2012,08,13,00,05,16.10
2012,08,13,00,06,16.10
2012,08,13,00,07,16.10
2012,08,13,00,08,16.10
2012,08,13,00,09,16.10
2012,08,13,00,10,16.10
2012,08,13,00,11,16.10
2012,08,13,00,12,16.10
2012,08,13,00,13,16.10
2012,08,13,00,14,16.00
2012,08,13,00,15,15.90
2012,08,13,00,16,15.90
2012,08,13,00,17,15.90
2012,08,13,00,18,15.80
2012,08,13,00,19,15.80
2012,08,13,00,20,15.80
2012,08,13,00,21,15.80
2012,08,13,00,22,15.80
2012,08,13,00,23,15.80
2012,08,13,00,24,15.80
2012,08,13,00,25,15.80
2012,08,13,00,26,15.70
2012,08,13,00,27,15.70
2012,08,13,00,28,15.70
2012,08,13,00,29,15.60
2012,08,13,00,30,15.60
2012,08,13,00,31,15.60
2012,08,13,00,32,15.60
2012,08,13,00,33,15.60
2012,08,13,00,34,15.50
2012,08,13,00,35,15.50
2012,08,13,00,36,15.50
2012,08,13,00,37,15.50
2012,08,13,00,38,15.50
2012,08,13,00,39,15.50
2012,08,13,00,40,15.40
2012,08,13,00,41,15.40
2012,08,13,00,42,15.40
2012,08,13,00,43,15.40
2012,08,13,00,44,15.40
2012,08,13,00,45,15.30
2012,08,13,00,46,15.30
2012,08,13,00,47,15.30
2012,08,13,00,48,15.30
2012,08,13,00,49,15.30
2012,08,13,00,50,15.30
2012,08,13,00,51,15.30
2012,08,13,00,52,15.30
2012,08,13,00,53,15.30
2012,08,13,00,54,15.30
2012,08,13,00,55,15.30
2012,08,13,00,56,15.30
2012,08,13,00,57,15.30
2012,08,13,00,58,15.30
2012,08,13,00,59,15.30
2012,08,13,01,00,15.20
2012,08,13,01,01,15.20
2012,08,13,01,02,15.20
2012,08,13,01,03,15.20
2012,08,13,01,04,15.20
2012,08,13,01,05,15.20
2012,08,13,01,06,15.20
2012,08,13,01,07,15.20
2012,08,13,01,08,15.20
2012,08,13,01,09,15.20
2012,08,13,01,10,15.10
2012,08,13,01,11,15.10
2012,08,13,01,12,15.10
2012,08,13,01,13,15.10
2012,08,13,01,14,15.10
2012,08,13,01,15,15.10
2012,08,13,01,16,15.00
2012,08,13,01,17,15.00
2012,08,13,01,18,15.00
2012,08,13,01,19,15.00
2012,08,13,01,20,15.00
2012,08,13,01,21,15.00
2012,08,13,01,22,15.00
2012,08,13,01,23,14.90
2012,08,13,01,24,14.90
2012,08,13,01,25,14.90
2012,08,13,01,26,14.90
2012,08,13,01,27,14.80
2012,08,13,01,28,14.80
2012,08,13,01,29,14.80
2012,08,13,01,30,14.80
2012,08,13,01,31,14.80
2012,08,13,01,32,14.80
2012,08,13,01,33,14.80
2012,08,13,01,34,14.70
2012,08,13,01,35,14.70
2012,08,13,01,36,14.70
2012,08,13,01,37,14.70
2012,08,13,01,38,14.70
2012,08,13,01,39,14.70
2012,08,13,01,40,14.70
2012,08,13,01,41,14.60
2012,08,13,01,42,14.60
2012,08,13,01,43,14.60
2012,08,13,01,44,14.60
2012,08,13,01,45,14.60
2012,08,13,01,46,14.60
2012,08,13,01,47,14.60
2012,08,13,01,48,14.50
2012,08,13,01,49,14.50
2012,08,13,01,50,14.50
2012,08,13,01,51,14.50
2012,08,13,01,52,14.40
2012,08,13,01,53,14.40
2012,08,13,01,54,14.40
2012,08,13,01,55,14.40
2012,08,13,01,56,14.40
2012,08,13,01,57,14.40
2012,08,13,01,58,14.40
2012,08,13,01,59,14.40
2012,08,13,02,00,14.40
2012,08,13,02,01,14.40
2012,08,13,02,02,14.40
2012,08,13,02,03,14.40
2012,08,13,02,04,14.40
2012,08,13,02,05,14.40
2012,08,13,02,06,14.40
2012,08,13,02,07,14.30
2012,08,13,02,08,14.30
2012,08,13,02,09,14.30
2012,08,13,02,10,14.30
2012,08,13,02,11,14.30
2012,08,13,02,12,14.30
2012,08,13,02,13,14.30
2012,08,13,02,14,14.30
2012,08,13,02,15,14.30
2012,08,13,02,16,14.30
2012,08,13,02,17,14.30
2012,08,13,02,18,14.30
2012,08,13,02,19,14.30
2012,08,13,02,20,14.30
2012,08,13,02,21,14.30
2012,08,13,02,22,14.20
2012,08,13,02,23,14.20
2012,08,13,02,24,14.20
2012,08,13,02,25,14.20
2012,08,13,02,26,14.20
2012,08,13,02,27,14.20
2012,08,13,02,28,14.20
2012,08,13,02,29,14.20
2012,08,13,02,30,14.20
2012,08,13,02,31,14.20
2012,08,13,02,32,14.20
2012,08,13,02,33,14.20
2012,08,13,02,34,14.20
2012,08,13,02,35,14.10
2012,08,13,02,36,14.10
2012,08,13,02,37,14.10
2012,08,13,02,38,14.10
2012,08,13,02,39,14.00
2012,08,13,02,40,14.00
2012,08,13,02,41,14.00
2012,08,13,02,42,14.00
2012,08,13,02,43,14.00
2012,08,13,02,44,14.00
2012,08,13,02,45,14.00
2012,08,13,02,46,14.00
2012,08,13,02,47,14.00
2012,08,13,02,48,14.00
2012,08,13,02,49,14.00
2012,08,13,02,50,13.90
2012,08,13,02,51,13.90
2012,08,13,02,52,13.90
2012,08,13,02,53,13.90
2012,08,13,02,54,13.90
2012,08,13,02,55,13.90
2012,08,13,02,56,13.90
2012,08,13,02,57,13.90
2012,08,13,02,58,13.80
2012,08,13,02,59,13.80
2012,08,13,03,00,13.80
2012,08,13,03,01,13.80
2012,08,13,03,02,13.80
2012,08,13,03,03,13.80
2012,08,13,03,04,13.80
2012,08,13,03,05,13.80
2012,08,13,03,06,13.80
2012,08,13,03,07,13.80
2012,08,13,03,08,13.80
2012,08,13,03,09,13.90
2012,08,13,03,10,13.90
2012,08,13,03,11,13.80
2012,08,13,03,12,13.80
2012,08,13,03,13,13.70
2012,08,13,03,14,13.70
2012,08,13,03,15,13.70
2012,08,13,03,16,13.70
2012,08,13,03,17,13.80
2012,08,13,03,18,13.80
2012,08,13,03,19,13.80
2012,08,13,03,20,13.80
2012,08,13,03,21,13.80
2012,08,13,03,22,13.80
2012,08,13,03,23,13.80
2012,08,13,03,24,13.80
2012,08,13,03,25,13.80
2012,08,13,03,26,13.80
2012,08,13,03,27,13.80
2012,08,13,03,28,13.70
2012,08,13,03,29,13.70
2012,08,13,03,30,13.70
2012,08,13,03,31,13.70
2012,08,13,03,32,13.70
2012,08,13,03,33,13.70
2012,08,13,03,34,13.70
2012,08,13,03,35,13.70
2012,08,13,03,36,13.70
2012,08,13,03,37,13.70
2012,08,13,03,38,13.70
2012,08,13,03,39,13.70
2012,08,13,03,40,13.70
2012,08,13,03,41,13.60
2012,08,13,03,42,13.60
2012,08,13,03,43,13.60
2012,08,13,03,44,13.60
2012,08,13,03,45,13.60
2012,08,13,03,46,13.60
2012,08,13,03,47,13.50
2012,08,13,03,48,13.50
2012,08,13,03,49,13.50
2012,08,13,03,50,13.50
2012,08,13,03,51,13.50
2012,08,13,03,52,13.40
2012,08,13,03,53,13.40
2012,08,13,03,54,13.40
2012,08,13,03,55,13.40
2012,08,13,03,56,13.30
2012,08,13,03,57,13.30
2012,08,13,03,58,13.30
2012,08,13,03,59,13.30
2012,08,13,04,00,13.30
2012,08,13,04,01,13.30
2012,08,13,04,02,13.30
2012,08,13,04,03,13.30
2012,08,13,04,04,13.30
2012,08,13,04,05,13.30
2012,08,13,04,06,13.40
2012,08,13,04,07,13.40
2012,08,13,04,08,13.40
2012,08,13,04,09,13.40
2012,08,13,04,10,13.40
2012,08,13,04,11,13.30
2012,08,13,04,12,13.30
2012,08,13,04,13,13.30
2012,08,13,04,14,13.30
2012,08,13,04,15,13.30
2012,08,13,04,16,13.30
2012,08,13,04,17,13.30
2012,08,13,04,18,13.30
2012,08,13,04,19,13.30
2012,08,13,04,20,13.30
2012,08,13,04,21,13.30
2012,08,13,04,22,13.30
2012,08,13,04,23,13.30
2012,08,13,04,24,13.30
2012,08,13,04,25,13.30
2012,08,13,04,26,13.30
2012,08,13,04,27,13.30
2012,08,13,04,28,13.30
2012,08,13,04,29,13.30
2012,08,13,04,30,13.30
2012,08,13,04,31,13.30
2012,08,13,04,32,13.30
2012,08,13,04,33,13.30
2012,08,13,04,34,13.30
2012,08,13,04,35,13.30
2012,08,13,04,36,13.30
2012,08,13,04,37,13.30
2012,08,13,04,38,13.30
2012,08,13,04,39,13.30
2012,08,13,04,40,13.30
2012,08,13,04,41,13.30
2012,08,13,04,42,13.30
2012,08,13,04,43,13.30
2012,08,13,04,44,13.20
2012,08,13,04,45,13.20
2012,08,13,04,46,13.20
2012,08,13,04,47,13.20
2012,08,13,04,48,13.20
2012,08,13,04,49,13.20
2012,08,13,04,50,13.20
2012,08,13,04,51,13.20
2012,08,13,04,52,13.10
2012,08,13,04,53,13.10
2012,08,13,04,54,13.10
2012,08,13,04,55,13.10
2012,08,13,04,56,13.10
2012,08,13,04,57,13.10
2012,08,13,04,58,13.10
2012,08,13,04,59,13.10
2012,08,13,05,00,13.10
2012,08,13,05,01,13.20
2012,08,13,05,02,13.20
2012,08,13,05,03,13.20
2012,08,13,05,04,13.20
2012,08,13,05,05,13.20
2012,08,13,05,06,13.20
2012,08,13,05,07,13.20
2012,08,13,05,08,13.20
2012,08,13,05,09,13.20
2012,08,13,05,10,13.30
2012,08,13,05,11,13.30
2012,08,13,05,12,13.30
2012,08,13,05,13,13.30
2012,08,13,05,14,13.30
2012,08,13,05,15,13.30
2012,08,13,05,16,13.30
2012,08,13,05,17,13.30
2012,08,13,05,18,13.30
2012,08,13,05,19,13.30
2012,08,13,05,20,13.30
2012,08,13,05,21,13.30
2012,08,13,05,22,13.30
2012,08,13,05,23,13.30
2012,08,13,05,24,13.30
2012,08,13,05,25,13.30
2012,08,13,05,26,13.30
2012,08,13,05,27,13.30
2012,08,13,05,28,13.30
2012,08,13,05,29,13.30
2012,08,13,05,30,13.20
2012,08,13,05,31,13.20
2012,08,13,05,32,13.20
2012,08,13,05,33,13.20
2012,08,13,05,34,13.10
2012,08,13,05,35,13.20
2012,08,13,05,36,13.20
2012,08,13,05,37,13.20
2012,08,13,05,38,13.20
2012,08,13,05,39,13.10
2012,08,13,05,40,13.10
2012,08,13,05,41,13.10
2012,08,13,05,42,13.10
2012,08,13,05,43,13.10
2012,08,13,05,44,13.10
2012,08,13,05,45,13.10
2012,08,13,05,46,13.10
2012,08,13,05,47,13.10
2012,08,13,05,48,13.10
2012,08,13,05,49,13.00
2012,08,13,05,50,13.00
2012,08,13,05,51,13.10
2012,08,13,05,52,13.10
2012,08,13,05,53,13.10
2012,08,13,05,54,13.10
2012,08,13,05,55,13.10
2012,08,13,05,56,13.10
2012,08,13,05,57,13.10
2012,08,13,05,58,13.10
2012,08,13,05,59,13.10
2012,08,13,06,00,13.10
2012,08,13,06,01,13.10
2012,08,13,06,02,13.10
2012,08,13,06,03,13.00
2012,08,13,06,04,13.00
2012,08,13,06,05,12.90
2012,08,13,06,06,12.90
2012,08,13,06,07,12.90
2012,08,13,06,08,12.90
2012,08,13,06,09,12.90
2012,08,13,06,10,12.80
2012,08,13,06,11,12.80
2012,08,13,06,12,12.80
2012,08,13,06,13,12.80
2012,08,13,06,14,12.80
2012,08,13,06,15,12.80
2012,08,13,06,16,12.80
2012,08,13,06,17,12.80
2012,08,13,06,18,12.80
2012,08,13,06,19,12.80
2012,08,13,06,20,12.80
2012,08,13,06,21,12.80
2012,08,13,06,22,12.80
2012,08,13,06,23,12.80
2012,08,13,06,24,12.80
2012,08,13,06,25,12.80
2012,08,13,06,26,12.80
2012,08,13,06,27,12.80
2012,08,13,06,28,12.80
2012,08,13,06,29,12.80
2012,08,13,06,30,12.80
2012,08,13,06,31,12.80
2012,08,13,06,32,12.80
2012,08,13,06,33,12.80
2012,08,13,06,34,12.80
2012,08,13,06,35,12.80
2012,08,13,06,36,12.90
2012,08,13,06,37,12.90
2012,08,13,06,38,12.90
2012,08,13,06,39,12.90
2012,08,13,06,40,12.90
2012,08,13,06,41,12.90
2012,08,13,06,42,12.90
2012,08,13,06,43,12.90
2012,08,13,06,44,12.80
2012,08,13,06,45,12.80
2012,08,13,06,46,12.80
2012,08,13,06,47,12.80
2012,08,13,06,48,12.80
2012,08,13,06,49,12.80
2012,08,13,06,50,12.80
2012,08,13,06,51,12.80
2012,08,13,06,52,12.80
2012,08,13,06,53,12.80
2012,08,13,06,54,12.80
2012,08,13,06,55,12.80
2012,08,13,06,56,12.80
2012,08,13,06,57,12.80
2012,08,13,06,58,12.80
2012,08,13,06,59,12.80
2012,08,13,07,00,12.80
2012,08,13,07,01,12.80
2012,08,13,07,02,12.80
2012,08,13,07,03,12.80
2012,08,13,07,04,12.80
2012,08,13,07,05,12.80
2012,08,13,07,06,12.80
2012,08,13,07,07,12.90
2012,08,13,07,08,12.90
2012,08,13,07,09,12.90
2012,08,13,07,10,12.90
2012,08,13,07,11,13.00
2012,08,13,07,12,13.00
2012,08,13,07,13,13.00
2012,08,13,07,14,13.00
2012,08,13,07,15,13.10
2012,08,13,07,16,13.10
2012,08,13,07,17,13.10
2012,08,13,07,18,13.20
2012,08,13,07,19,13.20
2012,08,13,07,20,13.20
2012,08,13,07,21,13.30
2012,08,13,07,22,13.30
2012,08,13,07,23,13.30
2012,08,13,07,24,13.30
2012,08,13,07,25,13.40
2012,08,13,07,26,13.40
2012,08,13,07,27,13.40
2012,08,13,07,28,13.50
2012,08,13,07,29,13.50
2012,08,13,07,30,13.60
2012,08,13,07,31,13.70
2012,08,13,07,32,13.70
2012,08,13,07,33,13.70
2012,08,13,07,34,13.80
2012,08,13,07,35,13.90
2012,08,13,07,36,13.90
2012,08,13,07,37,14.00
2012,08,13,07,38,14.00
2012,08,13,07,39,14.10
2012,08,13,07,40,14.20
2012,08,13,07,41,14.20
2012,08,13,07,42,14.20
2012,08,13,07,43,14.30
2012,08,13,07,44,14.30
2012,08,13,07,45,14.30
2012,08,13,07,46,14.40
2012,08,13,07,47,14.50
2012,08,13,07,48,14.60
2012,08,13,07,49,14.60
2012,08,13,07,50,14.70
2012,08,13,07,51,14.70
2012,08,13,07,52,14.80
2012,08,13,07,53,14.80
2012,08,13,07,54,14.80
2012,08,13,07,55,14.80
2012,08,13,07,56,14.90
2012,08,13,07,57,15.00
2012,08,13,07,58,15.10
2012,08,13,07,59,15.10
2012,08,13,08,00,15.20
2012,08,13,08,01,15.30
2012,08,13,08,02,15.30
2012,08,13,08,03,15.30
2012,08,13,08,04,15.40
2012,08,13,08,05,15.40
2012,08,13,08,06,15.50
2012,08,13,08,07,15.50
2012,08,13,08,08,15.60
2012,08,13,08,09,15.70
2012,08,13,08,10,15.80
2012,08,13,08,11,15.80
2012,08,13,08,12,15.80
2012,08,13,08,13,15.90
2012,08,13,08,14,16.00
2012,08,13,08,15,16.10
2012,08,13,08,16,16.20
2012,08,13,08,17,16.30
2012,08,13,08,18,16.30
2012,08,13,08,19,16.30
2012,08,13,08,20,16.40
2012,08,13,08,21,16.50
2012,08,13,08,22,16.60
2012,08,13,08,23,16.70
2012,08,13,08,24,16.80
2012,08,13,08,25,16.90
2012,08,13,08,26,17.00
2012,08,13,08,27,17.00
2012,08,13,08,28,17.10
2012,08,13,08,29,17.10
2012,08,13,08,30,17.20
2012,08,13,08,31,17.30
2012,08,13,08,32,17.30
2012,08,13,08,33,17.40
2012,08,13,08,34,17.50
2012,08,13,08,35,17.60
2012,08,13,08,36,17.70
2012,08,13,08,37,17.70
2012,08,13,08,38,17.80
2012,08,13,08,39,17.90
2012,08,13,08,40,18.00
2012,08,13,08,41,18.10
2012,08,13,08,42,18.20
2012,08,13,08,43,18.40
2012,08,13,08,44,18.50
2012,08,13,08,45,18.50
2012,08,13,08,46,18.50
2012,08,13,08,47,18.60
2012,08,13,08,48,18.60
2012,08,13,08,49,18.60
2012,08,13,08,50,18.60
2012,08,13,08,51,18.60
2012,08,13,08,52,18.60
2012,08,13,08,53,18.50
2012,08,13,08,54,18.50
2012,08,13,08,55,18.50
2012,08,13,08,56,18.50
2012,08,13,08,57,18.40
2012,08,13,08,58,18.40
2012,08,13,08,59,18.40
2012,08,13,09,00,18.40
2012,08,13,09,01,18.50
2012,08,13,09,02,18.50
2012,08,13,09,03,18.60
2012,08,13,09,04,18.70
2012,08,13,09,05,18.70
2012,08,13,09,06,18.80
2012,08,13,09,07,18.80
2012,08,13,09,08,18.80
2012,08,13,09,09,18.80
2012,08,13,09,10,18.80
2012,08,13,09,11,18.80
2012,08,13,09,12,18.80
2012,08,13,09,13,18.80
2012,08,13,09,14,18.90
2012,08,13,09,15,18.90
2012,08,13,09,16,18.90
2012,08,13,09,17,18.90
2012,08,13,09,18,18.90
2012,08,13,09,19,18.90
2012,08,13,09,20,18.90
2012,08,13,09,21,18.90
2012,08,13,09,22,19.00
2012,08,13,09,23,19.10
2012,08,13,09,24,19.10
2012,08,13,09,25,19.10
2012,08,13,09,26,19.10
2012,08,13,09,27,19.10
2012,08,13,09,28,19.10
2012,08,13,09,29,19.20
2012,08,13,09,30,19.30
2012,08,13,09,31,19.30
2012,08,13,09,32,19.40
2012,08,13,09,33,19.40
2012,08,13,09,34,19.40
2012,08,13,09,35,19.40
2012,08,13,09,36,19.40
2012,08,13,09,37,19.40
2012,08,13,09,38,19.50
2012,08,13,09,39,19.50
2012,08,13,09,40,19.60
2012,08,13,09,41,19.60
2012,08,13,09,42,19.60
2012,08,13,09,43,19.60
2012,08,13,09,44,19.70
2012,08,13,09,45,19.70
2012,08,13,09,46,19.80
2012,08,13,09,47,19.90
2012,08,13,09,48,19.90
2012,08,13,09,49,19.80
2012,08,13,09,50,19.90
2012,08,13,09,51,19.90
2012,08,13,09,52,19.90
2012,08,13,09,53,20.10
2012,08,13,09,54,20.20
2012,08,13,09,55,20.20
2012,08,13,09,56,20.40
2012,08,13,09,57,20.50
2012,08,13,09,58,20.50
2012,08,13,09,59,20.50
2012,08,13,10,00,20.50
2012,08,13,10,01,20.40
2012,08,13,10,02,20.40
2012,08,13,10,03,20.40
2012,08,13,10,04,20.40
2012,08,13,10,05,20.40
2012,08,13,10,06,20.40
2012,08,13,10,07,20.40
2012,08,13,10,08,20.40
2012,08,13,10,09,20.40
2012,08,13,10,10,20.50
2012,08,13,10,11,20.60
2012,08,13,10,12,20.70
2012,08,13,10,13,20.80
2012,08,13,10,14,20.90
2012,08,13,10,15,20.90
2012,08,13,10,16,20.90
2012,08,13,10,17,20.90
2012,08,13,10,18,21.00
2012,08,13,10,19,21.00
2012,08,13,10,20,21.00
2012,08,13,10,21,21.00
2012,08,13,10,22,21.00
2012,08,13,10,23,21.00
2012,08,13,10,24,21.10
2012,08,13,10,25,21.10
2012,08,13,10,26,21.10
2012,08,13,10,27,21.10
2012,08,13,10,28,21.20
2012,08,13,10,29,21.30
2012,08,13,10,30,21.40
2012,08,13,10,31,21.40
2012,08,13,10,32,21.50
2012,08,13,10,33,21.60
2012,08,13,10,34,21.60
2012,08,13,10,35,21.70
2012,08,13,10,36,21.90
2012,08,13,10,37,22.00
2012,08,13,10,38,22.10
2012,08,13,10,39,22.10
2012,08,13,10,40,22.10
2012,08,13,10,41,22.00
2012,08,13,10,42,21.90
2012,08,13,10,43,22.00
2012,08,13,10,44,22.00
2012,08,13,10,45,22.10
2012,08,13,10,46,22.20
2012,08,13,10,47,22.20
2012,08,13,10,48,22.30
2012,08,13,10,49,22.30
2012,08,13,10,50,22.50
2012,08,13,10,51,22.60
2012,08,13,10,52,22.70
2012,08,13,10,53,22.70
2012,08,13,10,54,22.70
2012,08,13,10,55,22.80
2012,08,13,10,56,22.80
2012,08,13,10,57,22.80
2012,08,13,10,58,22.80
2012,08,13,10,59,22.90
2012,08,13,11,00,22.90
2012,08,13,11,01,22.80
2012,08,13,11,02,22.80
2012,08,13,11,03,22.70
2012,08,13,11,04,22.70
2012,08,13,11,05,22.70
2012,08,13,11,06,22.60
2012,08,13,11,07,22.60
2012,08,13,11,08,22.70
2012,08,13,11,09,22.70
2012,08,13,11,10,22.70
2012,08,13,11,11,22.60
2012,08,13,11,12,22.50
2012,08,13,11,13,22.50
2012,08,13,11,14,22.40
2012,08,13,11,15,22.40
2012,08,13,11,16,22.50
2012,08,13,11,17,22.50
2012,08,13,11,18,22.50
2012,08,13,11,19,22.50
2012,08,13,11,20,22.50
2012,08,13,11,21,22.50
2012,08,13,11,22,22.50
2012,08,13,11,23,22.50
2012,08,13,11,24,22.60
2012,08,13,11,25,22.70
2012,08,13,11,26,22.80
2012,08,13,11,27,22.90
2012,08,13,11,28,22.90
2012,08,13,11,29,22.90
2012,08,13,11,30,22.90
2012,08,13,11,31,22.80
2012,08,13,11,32,22.80
2012,08,13,11,33,22.70
2012,08,13,11,34,22.70
2012,08,13,11,35,22.70
2012,08,13,11,36,22.70
2012,08,13,11,37,22.70
2012,08,13,11,38,22.80
2012,08,13,11,39,22.90
2012,08,13,11,40,22.90
2012,08,13,11,41,23.00
2012,08,13,11,42,23.10
2012,08,13,11,43,23.10
2012,08,13,11,44,23.30
2012,08,13,11,45,23.30
2012,08,13,11,46,23.30
2012,08,13,11,47,23.10
2012,08,13,11,48,23.00
2012,08,13,11,49,22.90
2012,08,13,11,50,22.90
2012,08,13,11,51,22.90
2012,08,13,11,52,22.90
2012,08,13,11,53,22.90
2012,08,13,11,54,22.90
2012,08,13,11,55,22.90
2012,08,13,11,56,22.90
2012,08,13,11,57,23.00
2012,08,13,11,58,23.10
2012,08,13,11,59,23.10
2012,08,13,12,00,23.00
2012,08,13,12,01,22.90
2012,08,13,12,02,23.00
2012,08,13,12,03,23.00
2012,08,13,12,04,23.00
2012,08,13,12,05,23.10
2012,08,13,12,06,23.30
2012,08,13,12,07,23.30
2012,08,13,12,08,23.30
2012,08,13,12,09,23.30
2012,08,13,12,10,23.40
2012,08,13,12,11,23.50
2012,08,13,12,12,23.70
2012,08,13,12,13,23.70
2012,08,13,12,14,23.70
2012,08,13,12,15,23.70
2012,08,13,12,16,23.50
2012,08,13,12,17,23.30
2012,08,13,12,18,23.30
2012,08,13,12,19,23.20
2012,08,13,12,20,23.20
2012,08,13,12,21,23.10
2012,08,13,12,22,23.20
2012,08,13,12,23,23.20
2012,08,13,12,24,23.20
2012,08,13,12,25,23.10
2012,08,13,12,26,23.10
2012,08,13,12,27,23.10
2012,08,13,12,28,23.20
2012,08,13,12,29,23.20
2012,08,13,12,30,23.30
2012,08,13,12,31,23.30
2012,08,13,12,32,23.30
2012,08,13,12,33,23.30
2012,08,13,12,34,23.30
2012,08,13,12,35,23.30
2012,08,13,12,36,23.30
2012,08,13,12,37,23.30
2012,08,13,12,38,23.20
2012,08,13,12,39,23.20
2012,08,13,12,40,23.30
2012,08,13,12,41,23.30
2012,08,13,12,42,23.30
2012,08,13,12,43,23.30
2012,08,13,12,44,23.30
2012,08,13,12,45,23.20
2012,08,13,12,46,23.20
2012,08,13,12,47,23.30
2012,08,13,12,48,23.20
2012,08,13,12,49,23.20
2012,08,13,12,50,23.20
2012,08,13,12,51,23.20
2012,08,13,12,52,23.30
2012,08,13,12,53,23.30
2012,08,13,12,54,23.20
2012,08,13,12,55,23.20
2012,08,13,12,56,23.20
2012,08,13,12,57,23.20
2012,08,13,12,58,23.20
2012,08,13,12,59,23.20
2012,08,13,13,00,23.30
2012,08,13,13,01,23.30
2012,08,13,13,02,23.30
2012,08,13,13,03,23.30
2012,08,13,13,04,23.30
2012,08,13,13,05,23.30
2012,08,13,13,06,23.20
2012,08,13,13,07,23.20
2012,08,13,13,08,23.20
2012,08,13,13,09,23.20
2012,08,13,13,10,23.30
2012,08,13,13,11,23.30
2012,08,13,13,12,23.30
2012,08,13,13,13,23.20
2012,08,13,13,14,23.00
2012,08,13,13,15,22.90
2012,08,13,13,16,22.90
2012,08,13,13,17,22.90
2012,08,13,13,18,22.80
2012,08,13,13,19,22.80
2012,08,13,13,20,22.80
2012,08,13,13,21,22.80
2012,08,13,13,22,22.80
2012,08,13,13,23,22.80
2012,08,13,13,24,22.90
2012,08,13,13,25,22.90
2012,08,13,13,26,22.90
2012,08,13,13,27,22.90
2012,08,13,13,28,22.80
2012,08,13,13,29,22.90
2012,08,13,13,30,22.90
2012,08,13,13,31,22.70
2012,08,13,13,32,22.60
2012,08,13,13,33,22.60
2012,08,13,13,34,22.60
2012,08,13,13,35,22.70
2012,08,13,13,36,22.80
2012,08,13,13,37,22.80
2012,08,13,13,38,22.90
2012,08,13,13,39,22.90
2012,08,13,13,40,23.10
2012,08,13,13,41,23.20
2012,08,13,13,42,23.30
2012,08,13,13,43,23.30
2012,08,13,13,44,23.20
2012,08,13,13,45,23.10
2012,08,13,13,46,23.00
2012,08,13,13,47,22.90
2012,08,13,13,48,22.90
2012,08,13,13,49,22.90
2012,08,13,13,50,22.80
2012,08,13,13,51,22.90
2012,08,13,13,52,23.00
2012,08,13,13,53,23.10
2012,08,13,13,54,23.30
2012,08,13,13,55,23.30
2012,08,13,13,56,23.40
2012,08,13,13,57,23.40
2012,08,13,13,58,23.40
2012,08,13,13,59,23.40
2012,08,13,14,00,23.30
2012,08,13,14,01,23.30
2012,08,13,14,02,23.30
2012,08,13,14,03,23.30
2012,08,13,14,04,23.30
2012,08,13,14,05,23.30
2012,08,13,14,06,23.30
2012,08,13,14,07,23.40
2012,08,13,14,08,23.40
2012,08,13,14,09,23.40
2012,08,13,14,10,23.40
2012,08,13,14,11,23.40
2012,08,13,14,12,23.50
2012,08,13,14,13,23.40
2012,08,13,14,14,23.30
2012,08,13,14,15,23.40
2012,08,13,14,16,23.50
2012,08,13,14,17,23.60
2012,08,13,14,18,23.70
2012,08,13,14,19,23.70
2012,08,13,14,20,23.70
2012,08,13,14,21,23.60
2012,08,13,14,22,23.60
2012,08,13,14,23,23.60
2012,08,13,14,24,23.70
2012,08,13,14,25,23.70
2012,08,13,14,26,23.70
2012,08,13,14,27,23.70
2012,08,13,14,28,23.70
2012,08,13,14,29,23.80
2012,08,13,14,30,23.80
2012,08,13,14,31,23.90
2012,08,13,14,32,23.90
2012,08,13,14,33,23.90
2012,08,13,14,34,23.90
2012,08,13,14,35,24.00
2012,08,13,14,36,24.10
2012,08,13,14,37,24.10
2012,08,13,14,38,24.10
2012,08,13,14,39,24.10
2012,08,13,14,40,24.20
2012,08,13,14,41,24.10
2012,08,13,14,42,24.10
2012,08,13,14,43,24.10
2012,08,13,14,44,24.10
2012,08,13,14,45,24.10
2012,08,13,14,46,24.10
2012,08,13,14,47,24.10
2012,08,13,14,48,24.10
2012,08,13,14,49,24.10
2012,08,13,14,50,24.20
2012,08,13,14,51,24.30
2012,08,13,14,52,24.40
2012,08,13,14,53,24.40
2012,08,13,14,54,24.50
2012,08,13,14,55,24.40
2012,08,13,14,56,24.30
2012,08,13,14,57,24.20
2012,08,13,14,58,24.20
2012,08,13,14,59,24.10
2012,08,13,15,00,24.10
2012,08,13,15,01,24.10
2012,08,13,15,02,24.00
2012,08,13,15,03,23.90
2012,08,13,15,04,23.90
2012,08,13,15,05,23.90
2012,08,13,15,06,23.90
2012,08,13,15,07,24.00
2012,08,13,15,08,24.10
2012,08,13,15,09,24.20
2012,08,13,15,10,24.30
2012,08,13,15,11,24.40
2012,08,13,15,12,24.60
2012,08,13,15,13,24.70
2012,08,13,15,14,24.70
2012,08,13,15,15,24.80
2012,08,13,15,16,24.90
2012,08,13,15,17,24.90
2012,08,13,15,18,24.90
2012,08,13,15,19,24.80
2012,08,13,15,20,24.80
2012,08,13,15,21,24.60
2012,08,13,15,22,24.40
2012,08,13,15,23,24.20
2012,08,13,15,24,24.10
2012,08,13,15,25,24.00
2012,08,13,15,26,23.90
2012,08,13,15,27,23.80
2012,08,13,15,28,23.80
2012,08,13,15,29,23.70
2012,08,13,15,30,23.70
2012,08,13,15,31,23.70
2012,08,13,15,32,23.50
2012,08,13,15,33,23.40
2012,08,13,15,34,23.30
2012,08,13,15,35,23.30
2012,08,13,15,36,23.30
2012,08,13,15,37,23.20
2012,08,13,15,38,23.20
2012,08,13,15,39,23.20
2012,08,13,15,40,23.30
2012,08,13,15,41,23.40
2012,08,13,15,42,23.40
2012,08,13,15,43,23.60
2012,08,13,15,44,23.70
2012,08,13,15,45,23.70
2012,08,13,15,46,23.70
2012,08,13,15,47,23.60
2012,08,13,15,48,23.50
2012,08,13,15,49,23.40
2012,08,13,15,50,23.30
2012,08,13,15,51,23.30
2012,08,13,15,52,23.30
2012,08,13,15,53,23.30
2012,08,13,15,54,23.30
2012,08,13,15,55,23.40
2012,08,13,15,56,23.50
2012,08,13,15,57,23.60
2012,08,13,15,58,23.60
2012,08,13,15,59,23.70
2012,08,13,16,00,23.70
2012,08,13,16,01,23.70
2012,08,13,16,02,23.60
2012,08,13,16,03,23.60
2012,08,13,16,04,23.60
2012,08,13,16,05,23.70
2012,08,13,16,06,23.70
2012,08,13,16,07,23.70
2012,08,13,16,08,23.80
2012,08,13,16,09,24.00
2012,08,13,16,10,24.10
2012,08,13,16,11,24.20
2012,08,13,16,12,24.30
2012,08,13,16,13,24.40
2012,08,13,16,14,24.40
2012,08,13,16,15,24.30
2012,08,13,16,16,24.30
2012,08,13,16,17,24.40
2012,08,13,16,18,24.50
2012,08,13,16,19,24.60
2012,08,13,16,20,24.60
2012,08,13,16,21,24.40
2012,08,13,16,22,24.30
2012,08,13,16,23,24.30
2012,08,13,16,24,24.30
2012,08,13,16,25,24.30
2012,08,13,16,26,24.30
2012,08,13,16,27,24.30
2012,08,13,16,28,24.20
2012,08,13,16,29,24.10
2012,08,13,16,30,24.10
2012,08,13,16,31,24.10
2012,08,13,16,32,24.10
2012,08,13,16,33,24.30
2012,08,13,16,34,24.40
2012,08,13,16,35,24.50
2012,08,13,16,36,24.50
2012,08,13,16,37,24.60
2012,08,13,16,38,24.70
2012,08,13,16,39,24.70
2012,08,13,16,40,24.70
2012,08,13,16,41,24.50
2012,08,13,16,42,24.40
2012,08,13,16,43,24.40
2012,08,13,16,44,24.40
2012,08,13,16,45,24.40
2012,08,13,16,46,24.50
2012,08,13,16,47,24.50
2012,08,13,16,48,24.60
2012,08,13,16,49,24.70
2012,08,13,16,50,24.70
2012,08,13,16,51,24.70
2012,08,13,16,52,24.60
2012,08,13,16,53,24.50
2012,08,13,16,54,24.40
2012,08,13,16,55,24.30
2012,08,13,16,56,24.20
2012,08,13,16,57,24.10
2012,08,13,16,58,24.10
2012,08,13,16,59,24.00
2012,08,13,17,00,23.90
2012,08,13,17,01,23.70
2012,08,13,17,02,23.70
2012,08,13,17,03,23.70
2012,08,13,17,04,23.70
2012,08,13,17,05,23.80
2012,08,13,17,06,23.80
2012,08,13,17,07,23.80
2012,08,13,17,08,23.80
2012,08,13,17,09,23.70
2012,08,13,17,10,23.60
2012,08,13,17,11,23.60
2012,08,13,17,12,23.50
2012,08,13,17,13,23.60
2012,08,13,17,14,23.60
2012,08,13,17,15,23.40
2012,08,13,17,16,23.40
2012,08,13,17,17,23.40
2012,08,13,17,18,23.50
2012,08,13,17,19,23.60